This demonstration page uses our WeatherBlox Daily Observations layout. Learn more.

Left ArrowRight Arrow

38.20091, -84.87328

Hourly Observations for August 7, 2018

Temp ( °F °C ) Dew Point ( °F °C ) Humidity (%) Winds ( mph kmh ) Pressure ( in mb ) Visibility ( mi km ) Precip ( " mm )
12:53 am 00:53 Clear 77 25 71 21.7 82 82 SW 5 7 30.03 1017 10 16 0.00 0.00
1:53 am 01:53 Clear 75 23.9 70 21.1 84 84 SW 5 7 30.04 1017 10 16 0.00 0.00
2:53 am 02:53 Clear 74 23.3 70 21.1 88 88 SSW 5 7 30.03 1017 10 16 0.00 0.00
3:53 am 03:53 Clear 73 22.8 69 20.6 87 87 SW 5 7 30.01 1016 10 16 0.00 0.00
4:53 am 04:53 Clear 73 22.8 69 20.6 87 87 Calm 30.02 1017 10 16 0.00 0.00
5:53 am 05:53 Mostly Clear 73 22.8 70 21.1 90 90 Calm 30.02 1017 10 16 0.00 0.00
6:53 am 06:53 Mostly Sunny 74 23.3 69 20.6 85 85 Calm 30.04 1017 10 16 0.00 0.00
7:53 am 07:53 Sunny 74 23.3 70 21.1 88 88 Calm 30.05 1018 10 16 0.00 0.00
8:53 am 08:53 Sunny 78 25.6 70 21.1 76 76 SSE 8 13 30.05 1018 10 16 0.00 0.00
9:53 am 09:53 Sunny 81 27.2 71 21.7 72 72 S 8 13 30.04 1017 10 16 0.00 0.00
10:53 am 10:53 Sunny 84 28.9 73 22.8 70 70 SW 12 19 30.03 1017 10 16 0.00 0.00
11:53 am 11:53 Mostly Sunny 84 28.9 72 22.2 67 67 W 6 9 30.03 1017 10 16 0.00 0.00
12:34 pm 12:34 Mostly Cloudy 86 30 74 23.3 67 67 SSW 7 11 30.00 1016 10 16 0.00 0.00
12:42 pm 12:42 Partly Cloudy 86 30 74 23.3 67 67 SW 9 15 30.00 1016 10 16 0.00 0.00
12:53 pm 12:53 Mostly Sunny 87 30.6 74 23.3 65 65 SSW 12 19 30.00 1016 10 16 0.00 0.00
1:53 pm 13:53 Sunny 89 31.7 74 23.3 61 61 SW 12 19 29.99 1016 10 16 0.00 0.00
2:53 pm 14:53 Sunny 88 31.1 72 22.2 59 59 SSW 13 20 29.97 1015 10 16 0.00 0.00
3:53 pm 15:53 Mostly Sunny 88 31.1 73 22.8 61 61 WSW 12 19 29.94 1014 10 16 0.00 0.00
4:48 pm 16:48 Partly Cloudy with Nearby Thunderstorms 86 30 73 23 66 66 W 9 15 29.94 1014 10 16 0.00 0.00
4:53 pm 16:53 Partly Cloudy with Nearby Thunderstorms 86 30 73 22.8 65 65 W 9 15 29.93 1014 9 14 0.00 0.00
5:09 pm 17:09 Mostly Cloudy with Thunderstorms 77 25 72 22.2 85 85 SSW 14 22 29.97 1015 4 6 0.05 1.27
5:16 pm 17:16 Cloudy with Thunderstorms 76 24.4 70 21.1 82 82 SW 15 24 29.94 1014 10 16 0.05 1.27
5:53 pm 17:53 Mostly Cloudy with Nearby Thunderstorms 76 24.4 71 21.7 85 85 Calm 29.96 1015 10 16 0.06 1.52
6:39 pm 18:39 Mostly Cloudy 77 25 72 22.2 85 85 Calm 29.97 1015 10 16 0.00 0.03
6:53 pm 18:53 Mostly Sunny 77 25 72 22.2 85 85 SSW 6 9 29.96 1015 10 16 0.00 0.03
7:53 pm 19:53 Sunny 77 25 72 22.2 85 85 S 3 6 29.97 1015 10 16 0.00 0.00
8:53 pm 20:53 Clear 75 23.9 70 21.1 84 84 SSW 6 9 29.99 1016 10 16 0.00 0.00
9:53 pm 21:53 Clear 74 23.3 71 21.7 91 91 SSW 3 6 29.97 1015 10 16 0.00 0.00
10:53 pm 22:53 Clear 73 22.8 71 21.7 94 94 ESE 3 6 29.98 1015 10 16 0.00 0.00
11:53 pm 23:53 Clear 73 22.8 71 21.7 94 94 Calm 29.96 1015 10 16 0.00 0.00

Powered by AerisWeather